Simultaneous Nadir Overpasses (SNOs) Predictions

Prediction of SNOs between METOP-B and TERRA Satellite Orbit:

Table of predicted SNOs for the next 14.0 days since TLE Epoch: 2/10/2018
Index Date (METOP-B) Time (METOP-B) Lat,Lon (METOP-B) SZA (METOP-B ) Date (TERRA) Time (TERRA) Lat,Lon (TERRA) SZA (TERRA ) Distance(km) Time Diff (sec)
1 02/12/2018 07:48:26 -81.32, -69.75 82.70 02/12/2018 07:48:52 -81.32, -69.61 82.68 2.37 26
2 02/12/2018 08:39:05 81.33, 98.23 97.37 02/12/2018 08:38:18 81.32, 98.12 97.33 2.02 47
3 02/15/2018 03:22:48 -81.32, -3.35 83.64 02/15/2018 03:23:07 -81.31, -3.24 83.63 1.91 19
4 02/15/2018 04:13:27 81.33, 164.64 96.42 02/15/2018 04:12:33 81.32, 164.45 96.37 3.26 54
5 02/17/2018 22:57:08 -81.32, 63.44 84.57 02/17/2018 22:57:20 -81.33, 63.40 84.57 0.55 12
6 02/17/2018 23:47:48 81.33,-128.97 95.45 02/17/2018 23:46:46 81.33,-128.93 95.43 0.71 62
7 02/20/2018 18:31:30 -81.32, 129.81 85.57 02/20/2018 18:31:34 -81.33, 129.94 85.55 2.17 4
8 02/20/2018 19:22:10 81.33, -62.59 94.46 02/20/2018 19:21:00 81.33, -62.42 94.44 2.84 70
9 02/23/2018 13:15:12 81.32, 28.50 93.40 02/23/2018 13:16:21 81.33, 28.69 93.45 3.24 69




NCC Satellite Simultaneous Nadir Overpasses (SNOs) Prediction Service
